Weather Roundup
Issued by NWS

Home | Current Version | Previous Version | Text Only | Print | Product List | Glossary On
Versions: 1 2 3 4 5 6 7 8 9 10 11 12 13 14 15 16 17 18 19 20 21 22 23 24 25 26 27 28 29 30 31 32 33 34 35 36 37 38 39 40 41 42 43 44 45 46 47 48 49 50
000
NZUS93 KARX 262259
HRRWXR

CURRENT HOURLY OBSERVATIONS ACROSS
MUCH OF THE UPPER MISSISSIPPI VALLEY
NATIONAL WEATHER SERVICE LA CROSSE WI
600 PM CDT THU MAR 26 2015


...SOUTHEAST MINNESOTA...


CITY           SKY/WX    TMP DP  RH WIND       PRES   REMARKS
ROCHESTER      CLOUDY    31  21  66 NW17      30.07R WCI  19
ROCHESTER/MAYO CLOUDY    32  21  63 NW12G22   30.07S WCI  23
WINONA         CLOUDY    36  19  51 N9        30.08S WCI  29
AUSTIN         CLOUDY    30  19  64 NW13      30.09S WCI  20
ALBERT LEA     CLOUDY    30  21  69 NW13      30.10S WCI  20
DODGE CENTER   PTSUNNY   32  21  64 NW14      30.08R WCI  22
PRESTON        CLOUDY    30  20  67 NW14      30.07S WCI  20
OWATONNA       CLOUDY    32  21  64 NW16      30.10S WCI  21
FARIBAULT      CLOUDY    32  21  64 NW9       30.11S WCI  24
$$

...ELSEWHERE IN MINNESOTA...


CITY           SKY/WX    TMP DP  RH WIND       PRES   REMARKS
MINNEAPOLIS    PTSUNNY   34  13  41 NW12      30.11R WCI  25
INTNL FALLS    SUNNY     26   2  35 NW14      30.18R WCI  14
DULUTH         MOSUNNY   28   2  32 N14       30.09R WCI  17
RED WING       CLOUDY    36  16  44 N7        30.09R WCI  30
REDWOOD FALLS  CLOUDY    31  18  58 N13G21    30.17R WCI  21
MANKATO        CLOUDY    30  18  59 NW14G21   30.13R WCI  20
WORTHINGTON    CLOUDY    34  18  51 N18G24    30.14S WCI  23
FAIRMONT       CLOUDY    32  19  59 N18       30.12R WCI  20
$$

...SOUTHWEST WISCONSIN...


CITY           SKY/WX    TMP DP  RH WIND       PRES   REMARKS
LA CROSSE      CLOUDY    36  18  48 NW12      30.07R WCI  28
PRAIRIE DU CHI CLOUDY    35  18  50 NW8       30.07R WCI  28
BOSCOBEL       CLOUDY    36  20  52 NW8       30.06S WCI  30
LONE ROCK      NOT AVBL
PLATTEVILLE    CLOUDY    34  23  65 W12G17    30.04R WCI  25
FORT MC COY    CLOUDY    34  16  48 N9G17     30.06S WCI  26
VIROQUA        CLOUDY    32  20  59 NW10      30.03S WCI  24
WIS DELLS      NOT AVBL
$$

...ELSEWHERE IN WISCONSIN...


CITY           SKY/WX    TMP DP  RH WIND       PRES   REMARKS
MILWAUKEE      CLOUDY    35  17  47 NW12      30.01R WCI  27
MADISON        CLOUDY    35  18  49 N14       30.01R WCI  26
GREEN BAY      CLOUDY    32  17  54 N12       30.02R WCI  23
EAU CLAIRE     NOT AVBL
BLACK RVR FLS  CLOUDY    34  13  41 N9        30.06R WCI  26
MEDFORD        CLOUDY    26  12  56 N13G22    30.03R WCI  15
WAUSAU         CLOUDY    27  12  53 N14G23    30.02R WCI  16
WIS RAPIDS     CLOUDY    30  13  49 N14G22    30.06R WCI  19
MARSHFIELD     CLOUDY    29  15  56 NW20      30.04R WCI  16
RICE LAKE      CLOUDY    32  11  41 N10       30.08R WCI  24
$$

...NORTHEAST IOWA...


CITY           SKY/WX    TMP DP  RH WIND       PRES   REMARKS
DECORAH        CLOUDY    32  21  64 NW13      30.06S WCI  22
MASON CITY     CLOUDY    33  21  61 NW18      30.11R WCI  22
CHARLES CITY   PTSUNNY   34  25  69 N16G22    30.09S WCI  23
OELWEIN        MOSUNNY   34  23  64 N17G25    30.08R WCI  23
$$

...ELSEWHERE IN IOWA...


CITY           SKY/WX    TMP DP  RH WIND       PRES   REMARKS
DES MOINES     CLOUDY    44  23  43 N14       30.09S
IOWA CITY      SUNNY     42  21  43 NW17G26   30.06R
FORT DODGE     CLOUDY    37  21  52 N10       30.12R WCI  30
$$

...NORTHERN ILLINOIS...


CITY           SKY/WX    TMP DP  RH WIND       PRES   REMARKS
CHICAGO-OHARE  CLOUDY    38  23  55 NW14      30.00R WCI  30
CHICAGO-MIDWAY PTSUNNY   41  21  44 NW14      30.00R
MOLINE         SUNNY     41  22  46 NW21G26   30.03R
ROCKFORD       CLOUDY    37  21  52 N13       30.04R WCI  29
PEORIA         SUNNY     48  20  32 NW14      30.00F
$$

NOTE: "FAIR" INDICATES FEW OR NO CLOUDS BELOW 12,000 FEET WITH NO
SIGNIFICANT WEATHER AND/OR OBSTRUCTIONS TO VISIBILITY. WIND
SPEEDS ARE IN MILES-PER-HOUR.



USA.gov is the U.S. government's official web portal to all federal, state and local government web resources and services.